Weather History for Hagerstown, MD

Change the Weather History Date:

Thursday, February 21, 2013

  Actual Average Record
Temperature  
Mean Temperature 28 °F -  
Max Temperature 34 °F 41 °F 66 °F (1997)
Min Temperature 22 °F 25 °F 9 °F (2008)
Degree Days  
Heating Degree Days 37    
Month to date heating degree days 696  
Moisture  
Dew Point 13 °F    
Average Humidity 50    
Maximum Humidity 59    
Minimum Humidity 41    
Precipitation  
Precipitation 0.00 in - - ()
Month to date precipitation 0.54  
Year to date precipitation 3.52  
Sea Level Pressure  
Sea Level Pressure 30.25 in    
Wind  
Wind Speed 15 mph (NW)    
Max Wind Speed 25 mph    
Max Gust Speed 31 mph    
Visibility 10 miles    
Events      
Averages and records for this station are not official NWS values.
T = Trace of Precipitation, MM = Missing Value Source: NWS Daily Summary

Daily Weather History Graph

Daily Weather History Graph

Search for Another Location

Airport:

Trip Planner

Search our weather history database for the weather conditions in past years. The results will help you decide how hot, cold, wet, or windy it might be!

Date:

Astronomy

Feb. 21, 2013 Rise Set
Actual Time 6:55 AM EST 5:54 PM EST
Civil Twilight 6:27 AM EST 6:21 PM EST
Nautical Twilight 5:56 AM EST 6:53 PM EST
Astronomical Twilight 5:25 AM EST 7:24 PM EST
Moon 2:07 PM EST (2/21) 3:57 AM EST (2/21)
Length of Visible Light 11h 53m
Length of Day
10h 59m
Waxing Gibbous, 83% of the Moon is Illuminated
Feb 21
Waxing Gibbous
Feb 25
Full
Mar 4
Last Quarter
Mar 11
New
Mar 19
First Quarter

Hourly Weather History & Observations

Time (EST) Temp. Windchill Dew Point Humidity Pressure Visibility Wind Dir Wind Speed Gust Speed Precip Events Conditions
12:53 AM 23.0 °F 12.4 °F 10.0 °F 58% 30.17 in 10.0 mi WNW 10.4 mph - N/A   Overcast
1:53 AM 23.0 °F 11.1 °F 10.0 °F 58% 30.17 in 10.0 mi WNW 12.7 mph - N/A   Overcast
2:53 AM 23.0 °F 9.6 °F 10.0 °F 58% 30.16 in 10.0 mi WNW 16.1 mph 24.2 mph N/A   Overcast
3:53 AM 23.0 °F 11.1 °F 10.0 °F 58% 30.16 in 10.0 mi WNW 12.7 mph - N/A   Overcast
4:53 AM 23.0 °F 10.6 °F 10.9 °F 60% 30.18 in 10.0 mi NW 13.8 mph - N/A   Overcast
5:53 AM 23.0 °F 9.6 °F 9.0 °F 55% 30.19 in 10.0 mi WNW 16.1 mph - N/A   Overcast
6:53 AM 23.0 °F 10.6 °F 9.0 °F 55% 30.21 in 10.0 mi WNW 13.8 mph - N/A   Overcast
7:53 AM 24.1 °F 13.7 °F 10.0 °F 55% 30.22 in 10.0 mi WNW 10.4 mph - N/A   Overcast
8:53 AM 27.0 °F 14.7 °F 10.9 °F 51% 30.24 in 10.0 mi NW 16.1 mph - N/A   Mostly Cloudy
9:53 AM 27.0 °F 13.5 °F 10.9 °F 51% 30.24 in 10.0 mi NW 19.6 mph 27.6 mph N/A   Overcast
10:53 AM 28.9 °F 18.2 °F 12.0 °F 49% 30.24 in 10.0 mi NW 13.8 mph - N/A   Mostly Cloudy
11:53 AM 30.9 °F 19.1 °F 12.9 °F 47% 30.24 in 10.0 mi WNW 18.4 mph 24.2 mph N/A   Scattered Clouds
1:53 PM 33.1 °F 23.9 °F 14.0 °F 46% 30.22 in 10.0 mi NNW 12.7 mph - N/A   Partly Cloudy
2:53 PM 34.0 °F 22.7 °F 15.1 °F 46% 30.24 in 10.0 mi NW 19.6 mph 25.3 mph N/A   Clear
3:53 PM 34.0 °F 24.2 °F 14.0 °F 44% 30.24 in 10.0 mi NNW 15.0 mph - N/A   Clear
4:53 PM 32.0 °F 20.8 °F 14.0 °F 48% 30.24 in 10.0 mi NNW 17.3 mph - N/A   Clear
5:53 PM 28.9 °F 20.4 °F 15.1 °F 56% 30.30 in 10.0 mi NW 9.2 mph - N/A   Clear
6:53 PM 27.0 °F 19.5 °F 15.1 °F 61% 30.33 in 10.0 mi NW 6.9 mph - N/A   Clear
7:53 PM 26.1 °F 20.5 °F 15.1 °F 63% 30.34 in 10.0 mi WNW 4.6 mph - N/A   Clear
8:53 PM 27.0 °F 23.0 °F 15.1 °F 61% 30.36 in 10.0 mi SSW 3.5 mph - N/A   Clear
9:53 PM 25.0 °F 20.7 °F 15.1 °F 66% 30.35 in 10.0 mi NW 3.5 mph - N/A   Clear
10:53 PM 26.1 °F - 15.1 °F 63% 30.37 in 10.0 mi Calm Calm - N/A   Clear
11:53 PM 25.0 °F 20.7 °F 15.1 °F 66% 30.36 in 10.0 mi North 3.5 mph - N/A   Clear